Date,TemperatureHighF,TemperatureAvgF,TemperatureLowF,DewpointHighF,DewpointAvgF,DewpointLowF,HumidityHigh,HumidityAvg,HumidityLow,PressureMaxIn,PressureMinIn,WindSpeedMaxMPH,WindSpeedAvgMPH,GustSpeedMaxMPH,PrecipitationSumIn
2013-1-1,24.6,19.8,10.0,18.2,14.2,6.5,88,79,66,30.10,29.95,21,5,21,0.00
2013-1-2,27.1,22.4,16.2,21.8,17.8,9.0,90,82,66,30.09,29.94,13,2,14,0.00
2013-1-3,28.6,25.0,20.7,24.5,20.6,14.9,91,83,72,30.04,29.86,29,5,29,0.00
2013-1-4,34.5,29.5,26.6,28.3,23.9,21.3,88,79,68,30.04,29.74,27,6,27,0.00
2013-1-5,36.0,31.3,27.1,27.8,23.7,21.5,86,74,61,30.17,29.82,21,2,21,0.00
2013-1-6,32.7,29.5,25.9,31.0,26.0,20.9,99,87,76,30.22,29.77,17,7,17,0.00
2013-1-7,42.1,32.1,23.2,29.4,23.8,19.6,87,73,51,30.22,29.83,16,3,16,0.00
2013-1-8,43.2,34.3,31.5,34.0,30.2,27.9,93,85,64,30.11,29.89,11,3,11,0.00
2013-1-9,41.0,36.3,32.0,32.9,27.9,24.4,84,72,63,30.36,29.75,21,5,21,0.00
2013-1-10,34.5,33.0,29.3,27.9,26.4,24.6,83,77,70,30.40,30.36,17,7,17,0.00
2013-1-11,43.3,40.5,37.2,41.5,38.6,35.3,95,93,89,29.73,29.65,6,1,7,0.39
2013-1-12,56.1,43.3,35.6,43.1,37.0,30.1,90,79,50,29.94,29.60,21,3,21,0.01
2013-1-13,35.8,31.7,28.2,32.1,29.9,26.8,99,93,81,29.91,29.82,6,0,6,0.04
2013-1-14,28.0,22.5,17.8,26.8,17.0,11.1,95,79,62,30.32,29.89,0,0,0,0.00
2013-1-15,30.6,22.2,12.2,18.6,14.5,7.0,86,73,52,30.34,30.01,0,0,0,0.00
2013-1-16,32.2,25.7,19.8,28.8,20.8,12.8,97,82,66,30.01,29.57,34,6,34,11.06
2013-1-17,20.5,14.6,11.5,14.0,8.8,3.6,86,77,63,30.24,29.96,32,12,32,1.83
2013-1-18,28.6,17.0,12.6,28.2,11.9,3.8,99,80,66,30.29,29.72,13,3,13,0.00
2013-1-19,35.1,29.7,26.2,32.4,27.3,18.5,99,91,70,29.81,29.34,32,4,32,0.18
2013-1-20,27.7,15.2,8.1,20.8,8.8,1.9,91,75,61,30.09,29.39,42,20,42,6.35
2013-1-21,15.3,8.2,1.6,8.1,3.3,-4.8,89,80,63,30.04,29.86,31,7,31,1.38
2013-1-22,3.2,0.3,-4.0,0.3,-4.9,-8.4,87,78,68,30.18,29.97,24,6,24,0.00
2013-1-23,15.8,8.3,-3.6,10.8,3.7,-7.6,89,81,63,30.20,29.99,21,4,21,0.00
2013-1-24,12.0,4.4,-0.8,8.8,-0.3,-5.4,89,80,65,30.60,30.20,23,7,23,0.00
2013-1-25,22.3,13.3,4.6,14.9,8.2,-0.3,91,80,65,30.43,29.96,9,2,9,0.00
2013-1-26,23.4,20.0,12.9,18.5,15.4,10.6,96,83,74,30.31,30.01,14,3,14,0.00
2013-1-27,22.3,22.3,22.3,15.6,15.6,15.6,75,75,75,30.31,30.31,2,2,4,0.00
2013-1-28,33.3,27.0,22.3,27.1,20.5,15.6,78,76,74,30.31,29.82,4,2,4,0.00
2013-1-29,39.4,34.5,31.6,32.6,28.1,25.4,98,77,67,29.99,29.45,12,4,12,0.43
2013-1-30,35.6,31.2,19.0,27.4,21.4,8.0,78,67,59,29.46,29.09,15,5,15,0.17
2013-1-31,19.0,13.8,10.4,12.7,8.0,3.0,90,77,63,29.80,29.16,24,12,24,0.00
2013-2-1,18.5,12.5,9.0,12.0,8.8,5.6,89,85,70,30.06,29.80,18,5,18,0.00
2013-2-2,14.9,9.5,2.5,8.8,5.0,-1.1,90,81,65,30.03,29.98,17,3,17,0.00
2013-2-3,19.9,11.3,2.8,14.2,6.6,-0.8,87,81,71,29.98,29.76,32,5,32,0.02
2013-2-4,16.0,7.6,-0.9,7.6,2.5,-4.2,93,79,62,29.96,29.88,17,3,17,0.00
2013-2-5,24.3,12.6,0.0,19.7,8.8,-3.8,92,84,80,29.95,29.65,24,5,24,0.00
2013-2-6,27.5,17.5,6.8,17.1,12.7,3.8,89,81,65,30.23,29.95,97,7,97,20.73
2013-2-7,23.2,21.2,20.7,22.9,18.5,16.9,99,89,83,30.22,30.12,26,11,26,0.00
2013-2-8,21.7,19.4,16.5,20.1,14.2,10.6,93,80,68,30.37,30.12,25,11,25,0.00
2013-2-9,30.7,15.4,-2.7,16.7,8.8,-6.2,87,76,52,30.40,30.19,10,2,10,0.00
2013-2-10,32.2,25.2,14.2,25.6,19.7,11.1,88,80,66,30.20,29.55,17,8,20,0.00
2013-2-11,38.7,35.8,31.5,33.9,31.7,24.4,96,85,71,29.56,29.35,15,3,15,0.51
2013-2-12,34.5,14.6,0.0,32.2,32.2,32.2,91,39,91,30.39,29.44,5,2,5,0.51
2013-2-13,34.5,8.3,0.0,32.2,30.7,25.0,93,23,78,29.81,29.64,1,0,1,0.51
2013-2-14,38.7,31.2,24.8,33.9,29.4,-3.7,93,86,25,29.78,29.60,108,4,108,24.25
2013-2-15,25.5,21.3,18.7,21.6,14.0,11.1,86,73,69,30.10,29.78,28,11,28,0.00
2013-2-16,22.1,22.1,22.1,13.5,13.5,13.5,69,69,69,30.12,30.03,4,4,4,0.00
2013-2-17,22.1,20.0,0.0,13.5,13.5,13.5,69,62,69,30.17,30.09,4,3,4,0.00
2013-2-18,0.0,0.0,0.0,13.5,13.5,13.5,0,0,100,30.11,29.47,0,0,0,0.00
2013-2-19,33.4,9.8,0.0,27.6,15.7,8.3,97,42,76,29.78,29.16,0,0,0,0.22
2013-2-20,15.4,12.1,-35.7,11.3,7.2,-47.9,88,80,46,30.28,29.78,0,0,0,0.02
2013-2-21,12.6,12.6,12.6,8.2,8.2,8.2,82,82,82,30.43,30.27,0,0,0,0.00
2013-2-22,30.0,25.7,12.6,27.6,23.6,8.2,99,92,66,30.32,29.81,34,17,34,0.00
2013-2-23,34.5,29.1,24.1,28.5,24.5,21.7,91,83,62,29.83,29.75,8,2,8,0.05
2013-2-24,34.3,26.9,7.2,28.1,22.9,5.4,92,85,75,30.12,29.81,100,4,100,0.00
2013-2-25,37.0,30.3,10.4,29.4,26.0,9.3,95,84,66,30.19,30.11,10,1,10,0.01
2013-2-26,33.1,31.3,27.0,29.2,26.2,10.0,86,81,49,30.17,29.80,110,16,110,0.19
2013-2-27,33.6,32.1,30.6,31.6,29.7,27.8,99,91,82,29.81,29.68,31,18,31,0.00
2013-2-28,33.8,30.2,23.0,30.0,23.9,16.3,91,77,66,30.09,29.70,21,14,21,0.00
2013-3-1,25.9,21.4,17.2,17.4,14.8,12.3,85,75,64,30.21,30.08,20,13,20,0.00
2013-3-2,31.3,11.8,0.0,15.4,13.3,7.8,85,54,75,30.19,30.06,106,48,106,12.00
2013-3-3,0.0,0.0,0.0,13.2,13.2,13.2,0,0,100,30.08,30.02,0,0,0,12.00
2013-3-4,0.0,0.0,0.0,13.2,13.2,13.2,0,0,100,30.15,30.06,0,0,0,12.00
2013-3-5,0.0,0.0,0.0,13.2,13.2,13.2,0,0,100,30.15,30.04,0,0,0,12.00
2013-3-6,35.4,20.3,0.0,31.4,23.6,13.2,99,56,80,30.23,30.08,16,5,16,12.00
2013-3-7,28.0,25.2,25.0,26.9,21.9,21.4,96,87,86,30.41,30.22,19,11,19,0.00
2013-3-8,34.7,28.9,25.0,31.1,25.5,21.4,98,87,80,30.48,30.38,11,7,11,0.00
2013-4-3,32.9,32.5,30.2,21.1,19.2,16.3,62,58,53,30.39,30.36,14,12,14,0.00
2013-4-5,33.8,32.0,29.3,22.5,19.8,15.3,71,61,52,30.23,30.18,17,10,17,0.01
2013-4-6,37.2,30.9,24.3,33.2,26.4,19.5,99,85,61,30.23,29.63,14,4,14,0.12
2013-4-7,40.6,36.7,33.3,39.7,33.8,30.6,99,89,77,30.06,29.42,20,6,20,0.25
2013-4-8,38.3,33.9,28.8,34.9,32.4,27.5,99,94,75,30.08,29.85,24,9,24,0.18
2013-4-9,34.2,34.2,34.2,33.9,33.9,33.9,99,99,99,30.12,30.01,1,1,1,0.18
2013-4-10,40.5,35.2,33.4,33.9,31.7,28.7,99,88,66,30.17,30.07,13,5,13,0.01
2013-4-11,32.4,30.1,23.4,29.8,23.7,14.4,99,77,67,30.22,29.92,113,30,113,0.06
2013-4-12,31.3,29.8,28.0,31.0,29.4,25.8,99,98,88,29.92,29.66,42,23,42,0.18
2013-4-13,39.2,33.0,30.2,34.1,30.9,-16.5,99,92,74,29.91,29.70,15,4,15,0.73
2013-4-14,45.0,34.1,26.8,33.7,28.6,24.3,91,81,58,30.11,29.90,24,7,24,0.00
2013-4-15,50.4,41.6,34.7,50.1,39.6,29.5,99,92,73,30.02,29.77,29,6,29,0.18
2013-4-16,48.2,40.6,31.8,43.4,33.1,29.1,99,76,55,30.34,29.85,18,6,18,0.01
2013-4-17,41.0,35.4,28.8,35.1,32.2,27.7,99,88,60,30.45,30.16,24,10,24,0.01
2013-4-18,38.8,37.1,36.1,38.6,36.7,34.2,99,99,90,30.16,29.46,27,12,27,0.52
2013-4-19,44.2,37.9,27.5,44.0,32.3,21.3,99,82,53,29.60,29.22,24,6,24,0.28
2013-4-20,32.5,28.0,22.5,24.1,19.5,15.5,92,71,59,30.44,29.60,30,17,30,0.00
2013-4-21,39.6,32.5,18.5,33.3,24.6,14.0,89,73,41,30.61,30.40,24,9,24,0.00
2013-4-22,61.9,42.0,34.5,40.0,32.8,27.1,87,72,33,30.40,30.14,19,5,19,0.00
2013-4-23,62.1,44.6,33.3,47.3,37.4,31.5,99,78,54,30.15,29.84,19,5,19,0.31
2013-4-24,43.2,36.5,31.8,32.6,29.7,24.0,94,77,49,30.01,29.88,21,10,21,0.00
2013-4-25,44.4,37.5,30.6,37.0,29.7,23.9,87,73,60,30.27,29.91,21,5,21,0.00
2013-4-26,57.4,41.8,31.6,40.9,32.8,9.2,95,73,37,30.34,30.16,20,4,20,0.04
2013-4-27,135.5,47.2,39.0,99.9,42.6,36.3,99,89,72,30.24,30.12,128,5,128,0.20
2013-4-28,56.3,44.0,43.3,48.0,40.5,40.0,91,88,73,30.12,29.85,4,3,4,0.19
2013-4-29,53.6,46.2,40.6,51.9,44.9,18.9,99,96,28,29.90,29.86,103,6,103,0.18
2013-4-30,77.0,58.8,43.9,59.9,53.0,-20.5,99,84,54,29.93,29.80,27,4,27,0.06
2013-5-1,68.0,52.6,42.8,61.1,48.3,37.8,99,86,73,30.30,29.91,16,5,16,0.00
2013-5-2,53.8,43.4,40.1,43.4,40.0,22.7,99,88,32,30.32,30.15,100,6,100,0.00
2013-5-3,52.9,45.4,44.2,47.1,43.0,42.1,93,91,78,30.19,30.09,20,6,20,0.00
2013-5-4,57.0,45.5,13.8,48.0,42.5,16.5,99,89,67,30.17,30.11,100,8,100,0.00
2013-5-5,125.2,27.4,0.0,43.4,41.8,37.7,99,64,97,30.17,30.06,3,1,3,0.31
2013-5-6,0.0,0.0,0.0,42.4,42.4,42.4,0,0,100,30.13,30.04,0,0,0,0.31
2013-5-7,61.5,24.8,-11.6,42.7,40.1,24.1,70,25,27,30.14,29.70,47,4,47,0.59
2013-5-8,54.7,48.1,46.9,48.0,37.6,29.9,90,60,53,29.95,29.78,9,7,9,1.51
2013-5-9,77.4,57.0,10.2,45.9,42.8,0.6,88,61,50,30.02,29.89,27,3,27,0.07
2013-5-10,43.5,39.7,37.2,40.8,38.2,36.6,99,94,88,30.04,29.89,21,11,21,0.58
2013-5-11,41.7,40.5,35.1,40.9,37.7,29.9,99,90,75,30.10,29.65,26,7,26,0.14
2013-5-12,39.4,36.8,35.8,36.8,33.1,30.5,99,86,76,30.00,29.87,100,28,100,0.59
2013-5-13,47.8,39.1,36.3,35.6,32.9,32.0,84,79,59,30.00,29.90,31,25,34,0.60
2013-5-14,46.6,46.0,36.5,43.1,39.0,29.9,92,78,66,29.97,29.71,19,12,19,0.08
2013-5-15,45.3,45.3,45.3,43.1,43.1,43.1,92,92,92,29.75,29.53,18,18,18,0.08
2013-5-16,45.3,45.3,45.3,43.1,43.1,43.1,92,92,92,29.65,29.65,18,18,18,0.08
2013-5-17,45.3,45.3,45.3,43.1,43.1,43.1,92,92,92,29.65,29.65,18,18,18,0.08
2013-5-18,54.7,47.0,44.6,47.4,44.2,29.9,97,90,72,29.93,29.59,18,13,18,0.08
2013-5-19,132.8,48.0,43.7,99.9,42.9,-7.1,99,89,12,29.76,29.59,122,8,122,1.51
2013-5-20,56.5,50.4,0.0,56.2,49.7,-8.0,99,97,81,29.92,29.56,33,14,33,24.40
2013-5-21,52.7,47.8,44.8,52.1,47.6,44.5,99,99,99,29.94,29.77,114,11,114,0.34
2013-5-22,52.0,48.8,44.2,51.7,48.5,39.4,99,99,83,29.84,29.76,25,6,25,0.01
2013-5-23,49.8,48.0,43.2,49.6,43.6,32.8,99,86,68,30.30,29.84,53,13,53,0.79
2013-5-24,72.5,44.4,0.0,51.3,34.2,4.9,87,67,49,30.45,30.30,103,10,103,0.01
2013-5-25,59.0,47.1,43.7,45.8,40.3,35.2,87,79,44,30.53,30.38,11,4,11,0.00
2013-5-26,60.8,50.5,39.2,49.3,40.1,35.1,91,69,44,30.45,30.30,11,4,11,0.00
2013-5-27,59.7,49.9,39.9,46.8,41.6,35.3,85,74,59,30.33,30.11,17,7,17,0.00
2013-5-28,49.5,46.9,44.1,47.8,43.4,40.7,99,89,72,30.11,29.84,21,11,21,0.32
2013-5-29,63.3,51.6,43.2,56.6,49.1,42.9,99,92,71,30.02,29.81,12,3,12,0.02
2013-5-30,78.3,56.6,48.6,68.9,52.9,45.2,95,88,68,30.03,29.92,11,4,11,0.02
2013-5-31,84.7,68.8,-13.7,68.2,61.4,52.4,97,79,44,29.95,29.83,18,4,18,0.30
2013-6-1,78.8,59.7,55.6,69.9,57.0,53.1,99,91,65,29.85,29.72,14,5,14,0.43
2013-6-2,57.0,50.1,45.1,56.7,46.3,38.6,99,87,73,30.06,29.66,30,9,30,0.11
2013-6-3,58.1,51.2,38.8,45.9,41.2,34.9,87,70,49,30.17,30.05,20,11,20,0.00
2013-6-4,63.3,54.7,37.9,46.3,41.0,32.4,88,63,34,30.29,30.17,11,5,11,0.00
2013-6-5,52.2,49.1,47.3,47.2,44.1,40.4,91,83,71,30.30,30.19,21,8,21,0.00
2013-6-6,61.7,52.9,47.1,51.3,46.0,42.2,93,78,59,30.20,30.04,14,4,14,0.00
2013-6-7,65.1,55.2,43.7,54.8,47.3,40.1,91,76,51,30.07,29.97,11,4,11,0.00
2013-6-8,68.0,58.1,47.7,55.8,48.4,41.9,96,73,42,30.14,29.98,8,2,8,0.00
2013-6-9,67.6,54.4,48.7,54.4,49.4,45.0,93,84,61,30.21,30.10,13,3,14,0.00
2013-6-10,59.7,53.2,50.7,56.4,50.9,47.9,99,92,73,30.11,29.90,59,8,59,2.44
2013-6-11,68.9,58.1,52.2,59.0,55.5,50.0,99,92,65,29.96,29.88,9,2,9,0.02
2013-6-12,70.5,57.1,50.9,59.7,53.3,49.8,99,88,62,29.99,29.83,9,2,9,0.00
2013-6-13,70.0,62.0,53.6,59.3,54.3,49.2,88,77,60,30.08,29.80,14,5,14,0.00
2013-6-14,65.5,58.6,53.1,57.2,47.5,40.6,87,68,49,30.22,30.08,14,4,14,0.00
2013-6-15,64.4,57.5,47.8,54.6,48.9,42.8,92,74,49,30.11,29.91,11,2,11,0.00
2013-6-16,77.2,64.9,53.6,65.3,58.0,51.0,99,81,55,29.92,29.79,13,3,13,0.20
2013-6-17,60.4,56.8,52.7,56.2,52.1,44.5,99,85,64,30.10,29.89,14,5,14,0.01
2013-6-18,66.4,57.7,46.4,53.7,48.3,43.0,94,72,56,30.21,30.09,10,4,10,0.00
2013-6-19,67.6,56.2,50.2,56.9,49.2,44.6,88,79,52,30.26,30.17,11,4,11,0.00
2013-6-20,78.1,61.4,10.4,57.3,51.3,5.3,87,72,39,30.25,30.17,26,5,26,21.91
2013-6-21,57.9,57.9,57.9,54.0,54.0,54.0,87,87,87,30.23,30.23,4,4,4,0.19
2013-6-22,57.9,57.9,57.9,54.0,54.0,54.0,87,87,87,30.23,30.23,4,4,4,0.19
2013-6-23,67.5,61.1,57.9,61.2,56.2,54.0,88,84,73,30.23,29.81,14,4,14,0.14
2013-6-24,83.3,70.0,60.6,69.6,64.1,56.6,99,82,59,29.93,29.81,11,3,11,0.00
2013-6-25,80.4,69.8,63.0,72.4,65.2,58.8,99,86,54,29.83,29.76,13,3,13,0.45
2013-6-26,76.8,69.2,59.9,68.0,63.8,58.3,99,84,65,29.80,29.70,11,4,11,0.00
2013-6-27,70.9,66.5,62.4,65.7,61.5,58.2,95,84,73,29.74,29.62,13,3,13,0.06
2013-6-28,68.9,64.1,59.4,64.5,60.6,55.0,99,89,75,29.63,29.58,9,3,9,0.02
2013-6-29,73.6,66.9,61.9,63.9,59.2,55.1,90,77,66,29.76,29.59,15,5,15,0.01
2013-6-30,75.6,68.7,63.1,62.3,53.7,39.5,82,62,34,30.01,29.75,13,5,13,0.00
2013-7-1,71.8,64.7,54.0,57.9,50.4,38.7,82,62,34,30.16,30.00,16,7,16,0.00
2013-7-2,68.5,63.2,52.9,56.2,51.7,42.6,93,67,49,30.14,30.06,14,5,14,0.00
2013-7-3,76.6,64.7,55.6,62.8,57.0,47.3,90,77,48,30.10,29.99,14,4,14,0.00
2013-7-4,78.3,70.0,61.0,66.6,61.9,56.6,90,77,60,30.04,29.97,9,2,9,0.01
2013-7-5,84.6,70.4,61.5,68.0,62.3,55.9,86,77,53,30.03,29.95,9,3,9,0.00
2013-7-6,90.7,76.0,63.3,66.6,61.9,55.8,83,65,36,29.99,29.92,17,4,17,0.00
2013-7-7,87.1,72.9,63.3,70.7,65.3,58.2,90,78,53,29.95,29.88,8,2,8,0.05
2013-7-8,70.0,67.9,65.5,68.6,66.4,63.8,99,95,84,29.96,29.90,15,5,15,0.14
2013-7-9,73.4,68.5,65.7,69.3,65.8,33.7,99,92,28,29.96,29.68,67,5,67,0.20
2013-7-10,73.4,68.1,62.2,70.6,59.3,52.4,99,75,51,29.89,29.60,21,6,21,0.01
2013-7-11,70.9,65.3,59.9,60.0,55.5,50.9,83,71,62,30.08,29.89,14,5,14,0.00
2013-7-12,82.4,67.0,54.3,63.6,56.2,48.7,87,71,41,30.16,30.05,14,4,14,0.00
2013-7-13,86.0,69.6,61.7,66.4,59.3,52.1,84,71,41,30.17,30.07,11,4,11,0.00
2013-7-14,83.7,71.2,63.5,66.8,61.3,52.8,86,72,53,30.23,30.15,11,3,11,0.00
2013-7-15,82.8,73.7,65.3,71.4,65.2,55.4,85,76,53,30.26,30.19,7,2,7,0.00
2013-7-16,128.1,77.6,67.8,72.5,67.1,58.2,84,75,57,30.25,30.13,11,3,11,2.72
2013-7-17,90.5,80.5,49.1,75.8,69.4,-12.1,90,70,51,30.16,30.05,20,4,20,0.43
2013-7-18,83.3,75.9,71.2,74.0,62.7,56.4,99,65,49,30.07,29.73,29,2,29,0.73
2013-7-19,86.2,74.4,65.3,74.0,63.3,52.0,99,70,44,29.75,29.57,33,5,33,0.65
2013-7-20,70.9,66.6,60.3,60.8,53.8,45.4,84,65,46,29.98,29.69,21,9,21,0.76
2013-7-21,72.0,64.9,59.4,59.1,56.3,52.4,87,74,62,30.03,29.92,19,9,19,0.00
2013-7-22,84.6,71.2,59.5,68.9,61.9,53.2,87,74,54,29.94,29.61,9,2,9,0.00
2013-7-23,74.7,65.1,60.4,66.6,54.7,47.0,87,70,49,29.90,29.56,33,15,33,0.08
2013-7-24,69.6,64.1,56.8,58.4,51.4,44.8,88,65,48,30.03,29.90,17,7,20,0.00
2013-7-25,80.4,66.1,54.3,64.3,55.2,45.4,88,71,33,30.04,29.94,14,4,14,0.00
2013-7-26,75.2,65.4,59.4,64.3,54.2,44.1,87,68,50,29.98,29.80,14,2,14,0.89
2013-7-27,65.7,61.6,59.0,60.7,50.8,45.3,99,69,58,29.82,29.72,20,7,20,0.00
2013-7-28,72.9,62.2,54.1,57.4,51.4,45.5,86,69,49,29.86,29.69,14,4,14,0.00
2013-7-29,68.0,60.6,54.3,59.0,49.9,41.2,86,69,51,30.13,29.85,17,6,17,0.00
2013-7-30,75.2,64.4,53.2,63.8,54.1,40.7,87,70,42,30.17,30.07,11,3,11,0.00
2013-7-31,81.5,66.8,59.4,66.4,54.5,43.9,86,66,49,30.07,29.82,25,4,25,0.13
2013-8-1,74.3,65.7,57.6,63.0,55.3,40.5,96,71,37,29.86,29.81,16,4,17,0.00
2013-8-2,68.9,62.3,55.6,61.1,51.2,42.4,85,68,50,29.87,29.76,32,4,32,0.11
2013-8-3,67.3,62.5,55.0,57.6,52.5,39.3,82,70,45,30.04,29.86,22,10,22,0.00
2013-8-4,69.1,63.7,55.4,56.8,53.3,49.2,87,70,55,30.15,30.03,19,9,19,0.00
2013-8-5,76.1,62.9,52.2,61.7,51.8,34.6,88,69,42,30.07,29.86,16,3,16,0.01
2013-8-6,79.5,68.6,60.4,66.3,57.1,46.4,85,68,58,29.87,29.75,9,2,9,0.00
2013-8-7,75.6,67.4,62.2,63.3,53.5,36.8,77,63,33,29.93,29.63,18,6,18,0.39
2013-8-8,73.6,65.2,54.9,60.2,53.8,48.6,85,68,47,30.01,29.92,17,5,17,0.00
2013-8-9,78.8,64.9,55.9,62.3,54.0,46.4,88,69,48,30.00,29.83,29,6,29,0.01
2013-8-10,72.3,62.8,49.3,58.6,52.9,44.3,86,71,54,30.09,29.99,14,6,14,0.00
2013-8-11,74.3,64.9,53.4,63.3,54.5,44.1,85,70,55,30.07,29.97,14,3,14,0.00
2013-8-12,81.5,64.2,58.6,63.3,52.9,42.3,94,68,51,29.99,29.83,24,6,24,0.15
2013-8-13,61.3,58.2,54.9,53.5,49.6,45.5,87,74,61,30.06,29.88,30,17,30,0.00
2013-8-14,68.0,61.3,54.0,53.6,50.6,45.2,86,69,49,30.12,30.04,20,9,20,0.00
2013-8-15,72.7,63.9,53.2,60.7,51.8,43.7,84,67,45,30.06,29.99,13,4,13,0.00
2013-8-16,74.1,64.7,56.5,63.2,54.2,41.1,85,70,45,30.16,30.06,8,2,8,0.00
2013-8-17,74.3,66.1,56.1,63.8,57.6,50.6,83,75,57,30.22,30.13,11,4,11,0.00
2013-8-18,86.0,69.7,56.1,63.4,55.5,42.3,83,65,30,30.17,30.03,11,3,11,0.00
2013-8-19,84.2,71.0,58.1,64.4,56.4,49.8,85,63,39,30.05,29.92,14,3,14,0.00
2013-8-20,88.2,76.9,68.4,67.5,63.4,59.6,83,66,44,30.00,29.92,14,3,14,0.00
2013-8-21,91.6,79.8,68.7,68.1,64.9,61.1,80,63,46,29.97,29.81,18,3,18,0.00
2013-8-22,81.3,71.2,65.7,67.6,61.3,55.0,85,72,53,30.08,29.85,100,7,100,0.00
2013-8-23,70.0,65.4,59.2,60.4,56.6,52.3,84,74,65,30.19,30.07,12,6,12,0.00
2013-8-24,72.5,65.1,55.0,62.5,55.9,48.7,81,73,61,30.26,30.15,10,3,10,0.00
2013-8-25,90.3,73.5,62.1,71.0,59.7,49.0,89,64,48,30.16,29.91,17,3,17,0.09
2013-8-26,84.2,74.5,68.4,70.8,62.7,48.3,85,68,38,29.99,29.88,17,3,17,0.32
2013-8-27,76.5,70.2,66.7,63.0,57.0,51.6,73,64,51,29.92,29.82,7,2,7,0.01
2013-8-28,76.8,69.4,63.1,67.9,60.3,53.0,99,74,51,30.01,29.83,7,1,7,0.00
2013-8-29,82.6,71.7,63.3,68.7,61.7,51.0,88,72,45,30.04,29.89,7,2,7,0.01
2013-8-30,76.6,71.9,68.0,64.1,61.3,57.5,81,70,57,29.90,29.70,15,3,15,0.07
2013-8-31,70.3,67.9,63.5,60.3,57.6,53.7,75,70,65,29.86,29.79,13,6,13,0.00
2013-9-1,75.2,67.0,61.9,62.2,56.7,52.0,82,70,58,29.83,29.64,20,4,20,0.06
2013-9-2,63.9,58.2,56.5,54.9,48.4,45.2,81,70,66,29.86,29.69,26,17,26,0.01
2013-9-3,69.3,63.3,57.4,54.8,50.0,46.1,77,63,47,29.94,29.85,20,9,20,0.00
2013-9-4,65.1,61.3,54.9,55.9,49.0,41.6,79,65,51,30.12,29.85,20,8,20,0.00
2013-9-5,61.7,56.6,50.9,50.5,40.7,27.6,81,58,31,30.29,30.11,17,7,17,0.00
2013-9-6,75.6,62.0,48.0,59.6,47.9,38.4,83,63,32,30.19,29.92,11,2,11,0.02
2013-9-7,74.7,66.7,61.3,71.8,56.5,44.5,99,71,39,29.99,29.82,12,3,12,0.52
2013-9-8,64.2,60.1,53.8,54.2,49.6,46.1,81,69,56,30.15,29.99,19,8,19,0.00
2013-9-9,72.3,61.6,54.1,58.8,51.2,45.3,79,69,59,30.04,29.70,10,2,10,0.00
2013-9-10,87.4,75.0,63.7,71.6,62.8,48.6,87,67,41,29.91,29.68,24,4,24,0.32
2013-9-11,75.9,68.8,64.6,68.2,60.3,39.6,99,77,37,29.92,29.83,17,2,17,0.44
2013-9-12,65.8,60.9,54.7,62.5,50.9,43.2,90,70,56,30.01,29.82,27,14,27,0.01
2013-9-13,56.1,51.1,46.2,45.7,37.7,31.5,76,61,47,30.16,30.01,21,11,21,0.00
2013-9-14,66.9,54.6,41.9,45.1,39.6,30.0,78,60,38,30.10,29.95,11,2,11,0.00
2013-9-15,63.9,57.9,50.5,47.4,42.6,33.6,67,58,48,30.17,29.92,24,5,24,0.09
2013-9-16,52.0,47.8,43.0,37.2,30.8,25.6,64,53,39,30.39,30.17,19,7,19,0.04
2013-9-17,63.7,50.7,39.2,45.9,35.4,27.0,67,58,30,30.37,30.14,17,4,17,0.00
2013-9-18,73.8,59.9,47.5,51.9,40.6,31.8,64,51,35,30.14,29.91,11,3,11,0.00
2013-9-19,70.0,65.9,62.8,51.5,46.9,42.6,65,52,42,29.92,29.74,8,3,9,0.00
2013-9-20,73.9,68.5,60.3,55.6,51.2,42.7,61,55,47,29.75,29.60,17,3,17,0.04
2013-9-21,60.1,54.7,48.7,43.9,38.8,33.4,72,56,46,29.85,29.67,27,14,27,0.00
2013-9-22,53.4,47.9,41.4,38.7,33.3,27.7,71,58,39,30.07,29.85,19,7,19,0.00
2013-9-23,61.9,48.1,37.9,41.7,30.3,15.2,66,52,30,30.17,30.07,15,4,15,0.00
2013-9-24,63.3,51.8,44.4,43.5,32.5,21.9,65,49,37,30.13,29.99,14,5,14,0.00
2013-9-25,61.0,51.8,42.1,41.3,31.9,18.2,55,48,32,30.04,29.98,11,4,11,0.00
2013-9-26,61.9,52.4,40.6,44.9,30.5,15.3,62,45,30,30.11,30.01,10,4,11,0.00
2013-9-27,70.3,57.1,44.6,49.6,36.7,22.9,68,49,29,30.19,30.10,14,4,14,0.00
2013-9-28,74.8,61.8,49.5,47.1,37.5,22.7,59,44,26,30.14,29.83,14,3,14,0.00
2013-9-29,66.9,58.0,47.5,51.8,39.4,28.5,72,52,34,29.98,29.79,19,4,19,0.08
2013-9-30,66.6,54.5,43.7,48.7,33.9,19.3,68,48,27,29.98,29.83,12,3,12,0.00
2013-10-1,79.0,65.7,54.3,53.8,45.7,39.9,66,51,30,29.85,29.67,11,4,11,0.00
2013-10-2,68.4,60.1,54.0,49.9,35.2,21.6,66,42,21,30.04,29.78,13,3,13,0.00
2013-10-3,64.9,56.1,48.0,50.2,39.8,35.7,69,56,40,30.05,29.90,22,8,22,0.12
2013-10-4,60.4,57.3,56.5,36.4,32.8,26.0,47,42,33,30.11,29.93,21,11,21,0.24
2013-10-5,60.6,54.6,51.8,39.9,34.2,28.2,63,48,40,30.11,29.92,30,18,30,1.24
2013-10-6,61.7,55.9,51.8,61.4,53.0,34.0,99,91,50,29.92,29.56,24,8,24,0.35
2013-10-7,54.3,51.8,49.1,52.8,36.9,20.1,99,61,31,30.00,29.50,25,11,25,0.21
2013-10-8,65.7,52.7,41.2,46.0,30.8,20.0,66,46,23,30.17,30.00,11,3,14,0.00
2013-10-9,74.1,58.9,51.4,44.9,37.7,28.8,68,49,22,30.19,30.12,7,3,8,0.00
2013-10-10,64.8,53.4,44.1,42.7,27.4,13.6,59,39,25,30.18,30.09,14,4,14,0.00
2013-10-11,58.1,52.4,44.2,55.1,27.9,5.7,99,45,18,30.14,30.03,18,6,18,0.01
2013-10-12,71.2,58.4,47.5,47.5,37.1,21.8,62,47,31,30.04,29.90,19,4,19,0.00
2013-10-13,62.2,55.2,50.9,41.8,36.6,28.0,63,51,30,30.35,29.95,17,7,17,0.00
2013-10-14,56.1,48.6,37.6,34.6,29.7,20.3,66,50,30,30.41,30.26,14,4,14,0.00
2013-10-15,60.6,50.7,40.5,44.1,30.6,21.7,65,48,31,30.26,29.68,20,5,20,0.22
2013-10-16,56.1,52.5,49.8,51.4,35.0,18.3,95,56,29,29.79,29.61,21,6,21,0.09
2013-10-17,52.2,48.4,43.3,33.4,27.6,18.8,61,46,32,29.81,29.69,19,5,19,0.00
2013-10-18,53.4,47.0,37.8,33.6,22.8,10.5,56,40,31,29.75,29.68,13,3,13,0.04
2013-10-19,49.5,46.0,37.6,29.2,23.6,5.3,62,44,20,29.75,29.61,26,7,26,0.11
2013-10-20,53.8,43.5,35.8,31.6,15.7,-8.2,65,36,17,29.77,29.66,8,2,8,0.15
2013-10-21,48.7,43.2,33.8,26.1,16.0,0.1,48,36,18,29.70,29.56,13,3,13,0.33
2013-10-22,45.7,38.4,32.7,24.4,12.4,-18.1,55,37,10,29.81,29.59,30,10,30,0.11
2013-10-23,43.5,38.9,30.7,26.9,20.7,12.8,63,49,37,29.81,29.75,34,14,34,0.09
2013-10-24,45.0,41.6,37.2,28.5,25.6,19.3,62,54,41,30.06,29.77,27,15,27,0.00
2013-10-25,45.3,40.3,35.2,27.6,18.5,1.6,62,44,19,30.17,29.72,20,5,20,12.24
2013-10-26,47.3,42.7,39.2,28.4,19.3,-3.1,64,42,17,29.88,29.49,34,13,34,0.28
2013-10-27,46.9,41.4,34.9,24.6,20.6,16.1,54,45,34,29.94,29.81,24,5,24,0.01
2013-10-28,44.4,36.2,29.1,26.5,16.0,7.8,55,45,34,30.43,29.93,25,11,25,0.00
2013-10-29,42.8,34.9,29.1,22.2,14.0,6.2,62,44,29,30.44,30.19,11,2,11,0.00
2013-10-30,51.3,42.2,34.2,30.0,13.1,-9.6,56,35,16,30.20,29.83,10,2,10,0.05
2013-10-31,57.4,51.8,47.8,57.1,32.6,3.0,99,58,18,29.84,29.00,9,3,9,0.48
2013-11-1,55.2,47.9,43.0,54.9,33.2,14.7,99,62,31,29.63,28.88,29,10,29,0.35
2013-11-2,43.2,39.4,36.9,23.0,16.7,9.0,47,41,32,30.11,29.63,17,10,20,0.00
2013-11-3,40.3,35.8,30.2,20.8,15.3,10.1,57,44,32,30.38,30.11,20,6,20,0.00
2013-11-4,50.4,40.9,32.0,19.9,11.3,-12.4,59,36,10,30.39,30.13,19,4,19,0.00
2013-11-5,59.0,49.7,43.5,35.6,25.7,13.2,63,42,28,30.20,29.97,10,3,10,0.01
2013-11-6,53.4,46.3,39.0,25.4,10.7,-7.5,43,27,12,29.98,29.57,29,10,29,0.48
2013-11-7,41.0,38.4,35.8,24.0,17.3,11.8,60,44,34,29.99,29.90,30,14,30,0.06
2013-11-8,41.7,37.5,33.6,21.8,16.1,4.8,56,44,24,30.14,29.99,23,8,23,0.00
2013-11-9,46.8,39.1,33.1,24.8,7.3,-19.6,67,32,10,30.04,29.56,17,4,17,0.32
2013-11-10,42.1,38.8,32.7,20.8,16.0,8.2,54,41,29,30.12,29.67,35,14,35,0.43
2013-11-11,40.5,32.0,27.0,24.7,6.5,-15.4,65,37,15,30.30,29.88,36,19,36,0.26
2013-11-12,30.4,27.9,24.6,15.1,6.2,-3.8,60,41,26,30.45,30.30,34,16,34,0.00
2013-11-13,41.9,32.6,21.4,16.0,7.1,-1.4,54,37,22,30.37,29.79,17,4,17,0.00
2013-11-14,50.4,42.7,37.6,22.5,16.0,12.8,48,36,26,29.82,29.74,13,3,13,0.00
2013-11-15,54.7,43.2,34.3,24.6,21.6,15.0,57,45,24,29.90,29.79,8,2,8,0.00
2013-11-16,55.4,45.1,32.5,32.9,20.3,12.4,60,39,28,29.92,29.51,11,3,11,0.05
2013-11-17,60.4,54.4,44.1,51.8,9.6,-9.2,95,27,10,29.52,28.87,32,5,32,1.65
2013-11-18,45.5,35.9,31.1,23.7,6.5,-14.7,67,32,16,30.04,29.10,125,18,125,4.18
2013-11-19,31.6,29.5,26.1,11.6,7.4,0.8,54,41,29,30.33,30.04,32,10,32,0.05
2013-11-20,43.2,33.9,26.2,19.9,11.0,-3.1,53,42,18,30.32,30.16,12,3,12,0.00
2013-11-21,42.6,39.0,36.0,23.5,19.0,6.1,52,46,28,30.18,30.11,6,1,6,0.00
2013-11-22,41.0,32.6,25.7,6.5,-4.5,-25.3,38,23,10,30.26,30.10,29,13,29,0.05
2013-11-23,31.8,21.5,16.3,8.6,-1.7,-13.3,58,38,16,30.40,30.12,39,25,39,0.38
2013-11-24,22.6,19.1,16.5,1.7,-2.7,-11.8,50,39,28,30.45,30.07,25,9,25,0.00
2013-11-25,33.8,29.9,21.2,17.0,10.2,-2.4,54,45,30,30.08,29.73,14,3,14,0.00
2013-11-26,33.8,29.9,23.2,18.7,9.6,-15.3,57,44,14,29.96,29.80,28,10,28,0.15
2013-11-27,24.3,22.0,18.0,10.9,0.8,-7.8,57,41,27,30.10,29.89,33,19,33,0.00
2013-11-28,24.6,18.6,11.3,4.9,-0.1,-5.0,50,44,36,30.38,30.10,13,4,13,0.00
2013-11-29,35.1,20.8,8.2,6.0,-0.7,-14.1,56,42,16,30.54,30.37,9,2,9,0.00
2013-11-30,34.9,30.7,25.2,22.7,11.1,3.7,62,45,40,30.41,29.95,10,3,10,0.00
2013-12-1,35.4,32.6,30.6,17.3,12.9,8.3,49,45,40,30.06,29.96,16,9,16,0.00
2013-12-2,31.1,28.2,19.2,15.3,8.2,3.9,61,44,35,29.96,29.52,13,3,13,0.00
2013-12-3,34.3,29.1,26.6,16.9,7.6,-24.7,57,45,10,29.93,29.87,27,14,27,0.00
2013-12-4,41.5,33.9,30.2,29.5,-14.7,-25.5,66,17,10,29.91,29.38,35,22,35,0.33
2013-12-5,46.0,33.8,22.3,37.8,3.4,-20.8,73,32,10,29.96,29.35,18,5,18,0.01
2013-12-6,25.7,20.7,17.4,5.2,-4.2,-12.0,48,34,22,30.24,29.96,17,5,17,0.00
2013-12-7,21.0,17.6,15.6,-0.3,-6.3,-16.2,46,35,23,30.43,30.23,21,4,21,0.00
2013-12-8,22.5,17.1,11.3,6.2,-1.2,-7.9,57,45,31,30.44,29.99,15,3,15,0.00
2013-12-9,29.8,23.1,12.2,4.9,-17.5,-29.3,47,20,10,29.99,29.64,21,2,21,0.01
2013-12-10,20.1,13.0,9.5,3.2,-9.8,-24.5,54,36,20,29.92,29.67,30,4,30,0.00
2013-12-11,16.7,13.6,9.0,-1.9,-11.1,-18.5,48,33,22,30.22,29.92,27,7,27,0.00
2013-12-12,19.2,13.7,7.2,-1.1,-7.0,-13.4,49,39,32,30.20,29.91,19,3,19,0.00
2013-12-13,20.1,10.7,7.2,-0.2,-9.7,-18.6,53,39,29,30.34,29.91,34,10,34,0.00
2013-12-14,19.9,16.4,9.7,6.1,-0.0,-18.6,58,49,27,30.34,29.84,32,20,32,0.00
2013-12-15,20.7,16.6,9.9,0.1,-2.1,-8.4,48,44,39,29.91,29.61,19,8,20,0.00
2013-12-16,17.2,8.2,3.4,-3.9,-11.2,-17.8,49,41,23,30.09,29.86,18,6,18,0.00
2013-12-17,26.1,18.7,11.5,8.2,2.2,-4.1,51,48,41,29.87,29.71,17,2,17,0.00
2013-12-18,26.1,21.8,18.0,6.6,2.1,-2.6,52,43,36,29.93,29.66,23,5,23,0.00
2013-12-19,30.2,25.0,21.4,12.7,5.8,3.1,49,44,37,30.01,29.63,20,7,20,0.00
2013-12-20,25.2,21.9,18.9,7.0,3.7,-1.3,55,46,33,29.98,29.80,18,12,18,0.00
2013-12-21,26.4,24.9,23.2,7.1,3.2,-2.2,45,40,32,29.95,29.76,30,11,30,0.00
2013-12-22,26.2,19.7,12.6,12.4,-2.9,-10.3,62,38,27,30.01,29.77,33,20,33,0.00
2013-12-23,13.3,9.8,7.2,-4.2,-8.5,-13.6,47,43,36,30.27,29.99,18,8,18,0.00
2013-12-24,8.8,3.6,-2.9,-11.4,-16.0,-20.7,44,39,28,30.40,30.26,11,4,12,0.00
2013-12-25,21.9,15.9,3.4,4.6,-1.7,-15.6,51,46,39,30.34,29.94,16,3,16,0.00
2013-12-26,23.7,18.4,14.0,3.1,-1.2,-6.0,49,42,29,30.12,29.91,12,2,12,0.00
2013-12-27,35.4,19.5,6.1,14.2,0.3,-10.3,47,43,33,30.15,29.77,14,2,14,0.00
2013-12-28,41.7,34.0,29.3,15.6,6.2,-26.0,50,35,10,29.91,29.68,11,2,11,0.02
2013-12-29,32.2,17.5,7.7,-6.8,-20.4,-36.1,43,20,10,29.97,29.64,28,16,28,0.00
2013-12-30,14.5,6.8,-2.9,-7.4,-12.6,-19.7,47,41,25,30.14,29.97,17,3,17,0.00
2013-12-31,12.4,7.2,1.2,-7.9,-16.1,-24.8,47,35,20,30.20,29.89,21,4,21,0.00
2014-1-1,7.2,3.3,-2.4,-9.8,-14.2,-22.9,48,43,33,30.39,30.20,18,6,18,0.00
2014-1-2,7.3,4.4,-5.6,-9.8,-16.7,-26.4,46,37,26,30.32,30.23,18,9,18,0.00